This is the latest recevied weather packets stored in our database for station/object KV4OP. If no packets are shown the sender has not sent any weather packets the latest 10 day(s).
| Time | Temp. | Humidity | Pressure | Rain* | Wind** | Luminosity | Snow |
|---|---|---|---|---|---|---|---|
| 1777763722 | 22.22° C | 87% | 1011.4 hPa | 0 mm | - | - | - |
| 1777763422 | 22.22° C | 87% | 1011.1 hPa | 0 mm | - | - | - |
| 1777763122 | 21.67° C | 87% | 1011.1 hPa | 0 mm | - | - | - |
| 1777762823 | 22.22° C | 87% | 1011.5 hPa | 0 mm | - | - | - |
| 1777762522 | 22.22° C | 87% | 1011.2 hPa | 0 mm | - | - | - |
| 1777762223 | 22.22° C | 87% | 1010.7 hPa | 0 mm | - | - | - |
| 1777761921 | 22.22° C | 87% | 1010.7 hPa | 0 mm | - | - | - |
| 1777761622 | 21.67° C | 87% | 1010.6 hPa | 0 mm | - | - | - |
| 1777761322 | 21.67° C | 87% | 1010.1 hPa | 0 mm | - | - | - |
| 1777761021 | 21.67° C | 87% | 1010.6 hPa | 0 mm | - | - | - |
| 1777760721 | 21.67° C | 87% | 1011 hPa | 0.25 mm | - | - | - |
| 1777760421 | 21.67° C | 87% | 1011.1 hPa | 0.25 mm | - | - | - |
| 1777760124 | 21.67° C | 87% | 1011.1 hPa | 0.25 mm | - | - | - |
| 1777759820 | 21.67° C | 87% | 1010.8 hPa | 0.25 mm | - | - | - |
| 1777759520 | 21.67° C | 87% | 1010.9 hPa | 0.25 mm | - | - | - |
| 1777759222 | 21.67° C | 87% | 1010.9 hPa | 0.51 mm | - | - | - |
| 1777758919 | 21.67° C | 87% | 1010.9 hPa | 0.51 mm | - | - | - |
| 1777758620 | 21.67° C | 87% | 1011.1 hPa | 0.76 mm | - | - | - |
| 1777758319 | 21.67° C | 88% | 1010.9 hPa | 0.76 mm | - | - | - |
| 1777758020 | 21.67° C | 87% | 1010.9 hPa | 1.27 mm | - | - | - |
| 1777757719 | 21.67° C | 87% | 1010.8 hPa | 1.52 mm | - | - | - |
| 1777757419 | 21.67° C | 87% | 1010.9 hPa | 2.03 mm | - | - | - |
| 1777757119 | 21.67° C | 87% | 1010.8 hPa | 1.78 mm | - | - | - |
| 1777756819 | 21.67° C | 87% | 1010.7 hPa | 1.78 mm | - | - | - |
| 1777756519 | 21.67° C | 87% | 1010.7 hPa | 2.03 mm | - | - | - |
* Rain latest hour (hover to see other rain measurements)
** Current wind speed in m/s (hover to see current wind gust speed)